Weather in Chokh

Russia / Republic of Dagestan     42°19′15″N   47°01′54″E
temp.,
°C
wind,
m/s
gust,
m/s
humid.,
%
clouds,
%
prec.,
mm/h
press.,
hPa
HPBL,
m
7 may, fri
fri700:00+6sw22565 0.0 101419
03:00+5sw334313 0.0 101328
06:00+6sw324399 0.0 101441
09:00+11nne324393 0.0 1014626
12:00+13nne425388 0.0 10131587
15:00+12nne3363100 1.4 10141021
18:00+10nne227799 2.1 1016318
21:00+9w117898 3.6 1019286
8 may, sat
sat800:00+6sw22875 0.1 102018
03:00+5ssw22815 0.1 102012
06:00+7s22704 0.0 101973
09:00+12ene23554 0.0 10171124
12:00+16n24423 0.0 10141846
15:00+17ne033915 0.0 10121824
18:00+14s126048 0.0 1013113
21:00+10sw335299 0.0 101552
9 may, sun
sun900:00+8sw43430 0.0 101438
03:00+7ssw44550 0.0 101340
06:00+9sw3461100 0.0 101164
09:00+17w1336100 0.0 10071153
12:00+19wsw273696 0.0 10062251
15:00+19sw26365 0.0 10052247
18:00+14wnw1264100 0.2 100634
21:00+10wnw1174100 1.9 101042
10 may, mon
mon1000:00+8n3392100 1.3 1010164
03:00+3nnw3393100 1.4 1014255
06:000nnw3397100 0.9 1018270
09:00−2n2298100 7.5 1021290
12:00−1nne22100100 12.3 1021289
15:000nne22100100 15.1 1021168
18:00−1ne119594 0.1 1022241
21:00−2s218880 0.1 102433
11 may, tue
tue1100:00−5s338648 0.0 102525
03:00−5s338923 0.0 102416
06:00−2s11895 0.0 102221
09:00+1ne2210084 0.0 1018144
12:00+4ne119796 0.0 1015219
15:00+7nnw119488 0.1 1014272
18:00+4nne229896 0.0 1017124
21:00+4sw32892 0.0 101830